ALTAIR (RS65S)

Last updated on Thu Oct 30 2025 00:03:10 GMT+0000 (Coordinated Universal Time)

1 61779U 24199AW 25302.52503413 .00012586 00000+0 41419-3 0 9993 2 61779 97.3316 168.7675 0016354 56.4699 303.8102 15.31513226101748
UTC large
Height (km)
Speed (km/s)
/
Latitude / Longitude
Inclination (degrees)
Orbital Period (minutes)
Azimuth
Elevation
Range (km)
Doppler Factor

Next 0 passes for location: London (51.5072 / 0.1276)

Sorry there are no passes over London.